Kezdőlap
METAR-TAF:

METAR-TAF

Repülőterek :

Charles City, Iowa, Amerikai Egyesült Államok

földrajzi szélesség: 43-04N, földrajzi hosszúság: 092-37W, magasság: 343 m

Jelenlegi meteorológiai megfigyelések

A jelentés 29 perccel ezelõtt készült, 11:55 UTC
Észak-északnyugati szél 7 kt
Hőmérséklet 19°C
Páratartalom 100%
Légköri nyomás 1011 hPa
Látótávolság: 16.1 km
Derült ég

METAR: KCCY 161155Z AUTO 33007KT 10SM CLR 19/19 A2984 RMK AO2

Idő: 07:24 (12:24 UTC)


TAF: hiányzik

Meteorológiai megfigyelések és előrejelzések több, mint 4000 repülőtéren (METAR és TAF jelentéseket).

A térképen piros és sárga pontok jelzik az elérhető meteorológiai állomásokat.

Mozgassa az egeret a pont fölött, hogy megjelenjen az állomás neve.

Azután kattintson az időjárási megfigyelések és előrejelzések megtekintéséhez.

A térkép megváltoztatása: kattintson a fekete keresztel jelölt zöld gombra ráközelítéshez, a vonallal jelölt zöld gombra távolításhoz, vagy a zöld nyilakra a szomszédos térképek eléréséhez.


METAR-TAF: